Location: Petrozavodsk
(61.7955°N, 34.3748°E)
Time: 03:07:56
(UTC+03:00)

Envisat - Pass Details

Date: 01 April 2023
Orbit: 763 x 765 km, 98.2° (Epoch: 28 May)

Event Time Altitude Azimuth Distance (km) Brightness Sun altitude
Rises 03:05:36 0° 22° (NNE) 3,249 7.7 -18.7°
Reaches altitude 10° 03:08:59 10° 45° (NE) 2,317 6.7 -18.4°
Maximum altitude 03:11:51 15° 80° (E) 1,991 5.8 -18.2°
Drops below altitude 10° 03:14:42 10° 114° (ESE) 2,308 5.7 -18.0°
Sets 03:18:03 0° 138° (SE) 3,228 6.2 -17.8°
